Погода Троицко-Печерск

Погода Троицко-Печерск : погода сейчас, прогноз погоды и архив. Всё, что Вы хотите узнать о погоде Троицко-Печерск!

Хотите узнать прогноз погоды Троицко-Печерск? Тогда Вам сюда: Погода Троицко-Печерск

Поиск расширенной информации на нашем сайте:

Другие новости

Новости СМИ2

Главная страница сайта

Новости сайта

02.10.2013

Напоминаем, что на нашем новом сайте вы можете получить высокодетализированные прогнозы погоды по пунктам России, СНГ и мира (включающие важные для авиации метеовеличины, такие как направление и скорость ветра, видимость, явления погоды, количество и форма облачности, нижняя и верхняя граница облачности), а также ознакомиться с разнообразными материалами по авиационной метеорологии и подборкой полезных ссылок на эту тему.

Сайт Метеоцентр.Азия посвящён разработке технологий оптимизации авиаметеорологического обслуживания, включая проектирование и перспективное создание нескольких автоматизированных авиаметеорологических систем:
- система выпуска высокодетальных прогностических карт явлений погоды для нижнего воздушного пространства по России и ближнему зарубежью;
- система верификации прогнозов TAF (выпускаемых синоптиками официальных АМСГ РФ и ближнего зарубежья) и AUTOTAF (выпускаемых сайтом Метеоцентр.Азия) - выявление ошибок, онлайн-сопоставление с фактической погодой METAR, автоматическое внесение коррективов в прогнозы при резком отклонении фактической погоды от прогноза, подсчёт оправдываемости прогнозов по элементам и в целом;
- система обработки, анализа и отображения авиаметеорологической информации для применения провайдерами метеорологической информации.

Рекомендуем: Заказать где купить постельное белье.

Погода Троицко-Печерск - сегодня

Время (UTC), дата Ветер
(°,м/с) 
Видим.   Явления Облачность Т
(°С)
Тd
(°С)
f(%) Тe
(°С)
Pmin
(гПа)
dP
(гПа)
Po
(мм)
O2
(г/м3)
Тmin Tmax R s Состояние
почвы
03 17.01.17 200 (Ю) 20000 м    10/10 420 м 
[Sc]
-11.9 -13.6 87 -14  1030.7  0.6  759  321  -13.7    0.3  50  равномерный
сухой снег
100% 
06 17.01.17 190 (Ю) 20000 м  {снег}  10/6 630 м средняя 
[Sc|As op]
-11.2 -12.8 88 -13  1031.5  0.8  760  321           
09 17.01.17 190 (Ю) 20000 м  слаб. снег  10/6 660 м средняя 
[Sc|As op]
-10.2 -11.9 87 -13  1032  0.6  761  319           
12 17.01.17 160 (Ю) 20000 м  {снег}  10/6 630 м средняя 
[Sc|As op]
-10.7 -12.3 88 -13  1032.5  0.4  761  320           
15 17.01.17 180 (Ю) 20000 м    10/10 540 м 
[Sc]
-11.3 -13 87 -13  1032.7  0.2  761  321    -10  0.6     
18 17.01.17 200 (Ю) 20000 м    10/10 500 м 
[Sc]
-11.1 -12.3 91 -13  1032.3  -0.4  761  321           
21 17.01.17 180 (Ю) 10 км  слаб. снег  10/0 средняя 
[As op]
-11.1 -12.3 91 -13  1032.3  -1.1  760  320           
00 18.01.17 180 (Ю) 10 км  слаб. снег  10/0 средняя 
[As op]
-12.2 -14 86 -14  1030.1  -1.1  759  321           
03 18.01.17 180 (Ю) 10 км  слаб. снег  10/0 средняя 
[As op]
-12.2 -13.7 89 -16  1028.5  -1.5  758  321  -12.3    0.3  50  равномерный
сухой снег
100% 
06 18.01.17 170 (Ю) 20000 м  в посл. час снег  9/9 600 м 
[Sc]
-14.1 -16 85 -19  1027.2  757  323           
09 18.01.17 170 (Ю) 10 км  слаб. снег  10/10 420 м 
[Sc]
-15.2 -17.4 83 -19  1025.9  -1.4  756  324           
12 18.01.17 180 (Ю) 20000 м  {снег}  6/0 средняя, верхняя 
[Ac trans|Ci fib]
-16.9 -19.5 80 -19  1024.2  -1.6  755  326           
15 18.01.17 190 (Ю) 20000 м    6/0 верхняя 
[Ci fib]
-17.6 -19.8 83 -20  1022.5  -90.2  753  326    -12.2       
18 18.01.17 190 (Ю) 20000 м    6/0 средняя, верхняя 
[Ac As|Ci fib]
-18.9 -20.9 84 -19  1020.8  -1.8  752  327           
21 18.01.17 210 (ЮЗ) 20000 м    10/0 средняя, верхняя 
[Ac As|Cs]
-16.5 -18.4 85 -19  1018.6  -2  750  323           
00 19.01.17 200 (Ю) 10 км  слаб. снег  10/0 средняя, верхняя 
[As op|Cs]
-15.9 -17.9 85 -18  1017.2  -1.3  749  322           
03 19.01.17 190 (Ю) 10 км  слаб. снег  10/0 средняя, верхняя 
[As op|Cs]
-15.3 -17.4 84 -19  1014.8  -2.3  748  321  -19    0.4  50  равномерный
сухой снег
100% 
06 19.01.17 190 (Ю) 20000 м  слаб. снег  9/0 средняя, верхняя 
[As op|Cs]
-15 -17.2 83 -19  1013.1  -1.6  746  320           
09 19.01.17 190 (Ю) 20000 м  слаб. снег  10/0 средняя, верхняя 
[As op|Cs]
-14 -16.2 83 -19  1009.5  -3.4  744  317           
12 19.01.17 180 (Ю) 20000 м  слаб. снег  10/0 средняя, верхняя 
[As op|Cs]
-13.4 -15.4 85 -19  1004.5  -4.9  740  315           
15 19.01.17 190 (Ю) 5{11}  20000 м  слаб. снег  10/0 средняя, верхняя 
[As op|Cs]
-12.3 -14.2 86 -17  999.5  -4.9  736  312    -12.3  0.4     
18 19.01.17 180 (Ю) 4{11}  2000 м  слаб. ливневой снег  10/10 450 м кучево-дожд. 
[Cb cap]
-11.4 -13.5 84 -16  994.3  -4.9  733  309           
21 19.01.17 190 (Ю) 5{11}  4000 м  слаб. ливневой снег  10/10 360 м кучево-дожд. 
[Cb cap]
-10.1 -12 86 -15  990.3  -3.9  730  306           
00 20.01.17 200 (Ю) 2000 м  слаб. ливневой снег  10/10 270 м кучево-дожд. 
[Cb cap]
-8.7 -10.2 89 -12  987.9  -2.2  728  304           
03 20.01.17 210 (ЮЗ) 10 км  слаб. ливневой снег  10/10 210 м кучево-дожд. 
[Cb cap]
-6.7 -7.8 92 -9  986.7  -1.1  727  301  -12.2    51  равномерный
сухой снег
100% 
Время (UTC), дата Ветер
(°,м/с) 
Видим.   Явления Облачность Т
(°С)
Тd
(°С)
f(%) Тe
(°С)
Pmin
(гПа)
dP
(гПа)
Po
(мм)
O2
(г/м3)
Тmin Tmax R s Состояние
почвы

Для получения пояснительной информации подведите курсор к названию столбца.

ПОГОДА Троицко-Печерск - архив

Всё, что Вы хотите узнать о погоде Троицко-Печерск - удобно и подробно!

Выберите нужную дату (начиная с 1 января 2015* года) и нажмите кнопку "Найти".
Будут отображены архивные сводки погоды по пункту Троицко-Печерск, начиная с указанной даты.


Отображать данные в формате CSV (для использования в таблицах Excel)


Внимание! Наш архив погоды предназначен исключительно для личного некоммерческого использования в познавательных целях. Если Вам необходимы официальные справки о состоянии погоды (для производственных, юридических, коммерческих и т.п. целей), обращайтесь в органы Росгидромета.

*Примечание: данная дата относится к архиву по метеостанциям СССР (Россия, СНГ, Балтия).
Архив по метеостанциям Зарубежной Европы и Азии (кроме Китая) хранится 10 дней, по другим регионам земного шара (Китай, Африка, Америка, Австралия, Океания) - 1 день.

Троицко-Печерск - район местоположения метеостанции


Название, широта, долгота, высота метеостанции:
Троицко-Печерск 62.7°ш. 56.2°д. 139 м над ур. моря [Российская Федерация]

Дополнительная информация

В oтличие oт бoльшинства пoгoдных сайтoв мы публикуем пoдрoбную метеoинфoрмацию в детальнoм прoфессиoнальнoм фoрмате.

Характеристики температуры и влажнoсти вoздуха измеряются на высoте 2 м в тени вдали oт зданий и деревьев.
Скoрoсть ветра измеряется на высoте 10 м (на урoвне рoста челoвека скoрoсть ветра ниже в 1.5-2 раза). Если метеoстанция нахoдится в гoрoде или в лесу, тo скoрoсть ветра занижена на 2-4 м/с пo сравнению с oткрытым местoм. Скoрoсть ветра над акватoриями крупных рек и oзёр, а также на вершинах хoлмoв на 2-5 м/с выше, чем в oбычных услoвиях.
Атмoсфернoе давление в разных тoчках местнoсти мoжет значительнo oтличаться oт давления на метеoстанции, в зависимoсти oт услoвий рельефа (при пoдъёме на 10 м давление пoнижается примернo на 1 мм рт.ст.).